| time (UTC) | temp F | wind direction | speed MPH | gust MPH | rain 1hr in | rain 24hr in | rain mn in | humidity % | barometer mb |
| 20260905182531 | 78 | 0 | 0.0 | 0.0 | 0.00 | 0.00 | 0.00 | 75 | 1011.9 |
| 20260905182317 | 79 | 67 | 0.0 | 0.0 | 0.00 | 0.00 | 0.00 | 76 | 1011.3 |
| 20260905182027 | 78 | 0 | 0.0 | 0.0 | 0.00 | 0.00 | 0.00 | 77 | 1012.0 |
| 20260905181843 | 79 | 65 | 0.0 | 0.0 | 0.00 | 0.00 | 0.00 | 76 | 1011.4 |
| 20260905181559 | 78 | 0 | 0.0 | 0.0 | 0.00 | 0.00 | 0.00 | 76 | 1012.0 |
| 20260905181316 | 78 | 65 | 0.0 | 0.0 | 0.00 | 0.00 | 0.00 | 77 | 1011.4 |
| 20260905181027 | 78 | 0 | 0.0 | 2.0 | 0.00 | 0.00 | 0.00 | 77 | 1012.0 |
| 20260905180829 | 78 | 65 | 0.0 | 2.0 | 0.00 | 0.00 | 0.00 | 77 | 1011.5 |
| 20260905180525 | 78 | 0 | 0.0 | 2.0 | 0.00 | 0.00 | 0.00 | 76 | 1012.0 |
| 20260905180344 | 78 | 65 | 0.0 | 2.0 | 0.00 | 0.00 | 0.00 | 78 | 1011.4 |
| 20260905180053 | 77 | 0 | 0.0 | 0.0 | 0.00 | 0.00 | 0.00 | 79 | 1012.0 |
| 20260905175837 | 78 | 65 | 0.0 | 0.0 | 0.00 | 0.00 | 0.00 | 79 | 1011.5 |
| 20260905175530 | 77 | 0 | 0.0 | 0.0 | 0.00 | 0.00 | 0.00 | 78 | 1012.1 |
| 20260905175331 | 78 | 65 | 0.0 | 0.0 | 0.00 | 0.00 | 0.00 | 78 | 1011.6 |
| 20260905175027 | 77 | 0 | 0.0 | 0.0 | 0.00 | 0.00 | 0.00 | 76 | 1012.2 |
| 20260905174845 | 78 | 65 | 0.0 | 0.0 | 0.00 | 0.00 | 0.00 | 77 | 1011.7 |
| 20260905174551 | 77 | 0 | 0.0 | 0.0 | 0.00 | 0.00 | 0.00 | 77 | 1012.3 |
| 20260905174318 | 78 | 65 | 0.0 | 0.0 | 0.00 | 0.00 | 0.00 | 77 | 1011.8 |
| 20260905174024 | 77 | 0 | 0.0 | 0.0 | 0.00 | 0.00 | 0.00 | 77 | 1012.4 |
| 20260905173846 | 78 | 65 | 0.0 | 0.0 | 0.00 | 0.00 | 0.00 | 78 | 1011.8 |
| 20260905173525 | 78 | 0 | 0.0 | 0.0 | 0.00 | 0.00 | 0.00 | 76 | 1012.3 |
| 20260905173318 | 78 | 65 | 0.0 | 0.0 | 0.00 | 0.00 | 0.00 | 78 | 1011.8 |
| 20260905173046 | 78 | 0 | 0.0 | 0.0 | 0.00 | 0.00 | 0.00 | 78 | 1012.3 |
| 20260905172819 | 78 | 65 | 0.0 | 0.0 | 0.00 | 0.00 | 0.00 | 77 | 1011.9 |
| 20260905172525 | 78 | 0 | 0.0 | 0.0 | 0.00 | 0.00 | 0.00 | 78 | 1012.4 |
| 20260905172333 | 78 | 65 | 0.0 | 0.0 | 0.00 | 0.00 | 0.00 | 78 | 1011.9 |
| 20260905172028 | 78 | 0 | 0.0 | 0.0 | 0.00 | 0.00 | 0.00 | 78 | 1012.5 |
| 20260905171829 | 78 | 65 | 0.0 | 0.0 | 0.00 | 0.00 | 0.00 | 76 | 1011.9 |
| 20260905171544 | 78 | 0 | 0.0 | 0.0 | 0.00 | 0.00 | 0.00 | 78 | 1012.4 |
| 20260905171324 | 79 | 65 | 0.0 | 0.0 | 0.00 | 0.00 | 0.00 | 79 | 1012.0 |
| 20260905171024 | 78 | 0 | 0.0 | 0.0 | 0.00 | 0.00 | 0.00 | 77 | 1012.6 |
| 20260905170818 | 79 | 65 | 0.0 | 0.0 | 0.00 | 0.00 | 0.00 | 77 | 1012.0 |
| 20260905170525 | 78 | 0 | 0.0 | 0.0 | 0.00 | 0.00 | 0.00 | 78 | 1012.5 |
| 20260905170352 | 79 | 65 | 0.0 | 0.0 | 0.00 | 0.00 | 0.00 | 79 | 1012.1 |
| 20260905170053 | 78 | 0 | 0.0 | 0.0 | 0.00 | 0.00 | 0.00 | 75 | 1012.5 |
| 20260905165828 | 78 | 65 | 0.0 | 0.0 | 0.00 | 0.00 | 0.00 | 77 | 1012.1 |
| 20260905165525 | 78 | 0 | 0.0 | 2.0 | 0.00 | 0.00 | 0.00 | 75 | 1012.6 |
| 20260905165342 | 79 | 65 | 0.0 | 2.0 | 0.00 | 0.00 | 0.00 | 75 | 1012.1 |
| 20260905165029 | 78 | 0 | 0.0 | 2.0 | 0.00 | 0.00 | 0.00 | 77 | 1012.6 |
| 20260905164834 | 79 | 65 | 0.0 | 2.0 | 0.00 | 0.00 | 0.00 | 77 | 1012.1 |
| 20260905164545 | 78 | 0 | 0.0 | 2.0 | 0.00 | 0.00 | 0.00 | 75 | 1012.5 |
| 20260905164347 | 79 | 63 | 0.0 | 0.0 | 0.00 | 0.00 | 0.00 | 78 | 1012.0 |
| 20260905164026 | 78 | 0 | 0.0 | 0.0 | 0.00 | 0.00 | 0.00 | 76 | 1012.6 |
| 20260905163840 | 79 | 63 | 0.0 | 0.0 | 0.00 | 0.00 | 0.00 | 76 | 1012.2 |
| 20260905163525 | 78 | 0 | 0.0 | 0.0 | 0.00 | 0.00 | 0.00 | 76 | 1012.6 |
| 20260905163333 | 79 | 63 | 0.0 | 0.0 | 0.00 | 0.00 | 0.00 | 75 | 1012.2 |
| 20260905163046 | 78 | 0 | 0.0 | 0.0 | 0.00 | 0.00 | 0.00 | 77 | 1012.6 |
| 20260905162826 | 79 | 63 | 0.0 | 0.0 | 0.00 | 0.00 | 0.00 | 79 | 1012.1 |
| 20260905162530 | 78 | 0 | 0.0 | 0.0 | 0.00 | 0.00 | 0.00 | 79 | 1012.6 |
| 20260905162320 | 79 | 22 | 0.0 | 0.0 | 0.00 | 0.00 | 0.00 | 77 | 1012.2 |
| 20260905162029 | 78 | 0 | 0.0 | 0.0 | 0.00 | 0.00 | 0.00 | 76 | 1012.7 |
| 20260905161834 | 79 | 22 | 0.0 | 0.0 | 0.00 | 0.00 | 0.00 | 78 | 1012.3 |
| 20260905161558 | 78 | 0 | 0.0 | 0.0 | 0.00 | 0.00 | 0.00 | 77 | 1012.8 |
| 20260905161328 | 79 | 21 | 0.0 | 0.0 | 0.00 | 0.00 | 0.00 | 77 | 1012.4 |
| 20260905161025 | 78 | 0 | 0.0 | 0.0 | 0.00 | 0.00 | 0.00 | 77 | 1012.9 |
| 20260905160822 | 79 | 21 | 0.0 | 0.0 | 0.00 | 0.00 | 0.00 | 77 | 1012.4 |
| 20260905160524 | 78 | 0 | 0.0 | 1.0 | 0.00 | 0.00 | 0.00 | 77 | 1012.9 |
| 20260905160317 | 79 | 21 | 0.0 | 1.0 | 0.00 | 0.00 | 0.00 | 76 | 1012.5 |
| 20260905160051 | 78 | 0 | 0.0 | 7.0 | 0.00 | 0.00 | 0.00 | 78 | 1012.8 |
| 20260905155831 | 79 | 20 | 0.0 | 6.0 | 0.00 | 0.00 | 0.00 | 78 | 1012.5 |
| 20260905155523 | 78 | 0 | 0.0 | 7.0 | 0.00 | 0.00 | 0.00 | 77 | 1012.9 |
| 20260905155328 | 78 | 73 | 1.0 | 6.0 | 0.00 | 0.00 | 0.00 | 77 | 1012.5 |
| 20260905155023 | 77 | 0 | 0.0 | 0.0 | 0.00 | 0.00 | 0.00 | 78 | 1013.0 |
| 20260905154821 | 78 | 79 | 0.0 | 0.0 | 0.00 | 0.00 | 0.00 | 82 | 1012.5 |
| 20260905154548 | 77 | 0 | 0.0 | 0.0 | 0.00 | 0.00 | 0.00 | 82 | 1012.9 |
| 20260905154316 | 78 | 79 | 0.0 | 0.0 | 0.00 | 0.00 | 0.00 | 84 | 1012.6 |
| 20260905154025 | 77 | 0 | 0.0 | 0.0 | 0.00 | 0.00 | 0.00 | 80 | 1013.0 |
| 20260905153828 | 77 | 79 | 0.0 | 0.0 | 0.00 | 0.00 | 0.00 | 81 | 1012.6 |
| 20260905153524 | 77 | 0 | 0.0 | 0.0 | 0.00 | 0.00 | 0.00 | 81 | 1013.0 |
| 20260905153342 | 77 | 79 | 0.0 | 0.0 | 0.00 | 0.00 | 0.00 | 84 | 1012.6 |
| 20260905153045 | 77 | 0 | 0.0 | 0.0 | 0.00 | 0.00 | 0.00 | 81 | 1013.1 |
| 20260905152816 | 77 | 79 | 0.0 | 0.0 | 0.00 | 0.00 | 0.00 | 80 | 1012.7 |
| 20260905152524 | 77 | 0 | 0.0 | 0.0 | 0.00 | 0.00 | 0.00 | 80 | 1013.2 |
| 20260905152349 | 77 | 79 | 0.0 | 0.0 | 0.00 | 0.00 | 0.00 | 81 | 1012.8 |
| 20260905152024 | 77 | 0 | 0.0 | 0.0 | 0.00 | 0.00 | 0.00 | 82 | 1013.4 |
| 20260905151820 | 77 | 79 | 0.0 | 0.0 | 0.00 | 0.00 | 0.00 | 81 | 1012.9 |
| 20260905151559 | 77 | 0 | 0.0 | 0.0 | 0.00 | 0.00 | 0.00 | 80 | 1013.4 |
| 20260905151336 | 78 | 79 | 0.0 | 0.0 | 0.00 | 0.00 | 0.00 | 80 | 1013.0 |
| 20260905151029 | 77 | 0 | 0.0 | 0.0 | 0.00 | 0.00 | 0.00 | 79 | 1013.5 |
| 20260905150828 | 78 | 79 | 0.0 | 0.0 | 0.00 | 0.00 | 0.00 | 80 | 1013.0 |
| 20260905150530 | 77 | 0 | 0.0 | 0.0 | 0.00 | 0.00 | 0.00 | 81 | 1013.4 |
| 20260905150322 | 78 | 74 | 0.0 | 0.0 | 0.00 | 0.00 | 0.00 | 80 | 1012.9 |
| 20260905150047 | 77 | 0 | 0.0 | 0.0 | 0.00 | 0.00 | 0.00 | 81 | 1013.4 |
| 20260905145819 | 78 | 74 | 0.0 | 0.0 | 0.00 | 0.00 | 0.00 | 80 | 1012.9 |
| 20260905145527 | 77 | 0 | 0.0 | 0.0 | 0.00 | 0.00 | 0.00 | 78 | 1013.3 |
| 20260905145334 | 78 | 74 | 0.0 | 0.0 | 0.00 | 0.00 | 0.00 | 80 | 1012.8 |
| 20260905145056 | 77 | 0 | 0.0 | 0.0 | 0.00 | 0.00 | 0.00 | 81 | 1013.2 |
| 20260905144827 | 78 | 74 | 0.0 | 0.0 | 0.00 | 0.00 | 0.00 | 79 | 1012.7 |
| 20260905144544 | 77 | 0 | 0.0 | 0.0 | 0.00 | 0.00 | 0.00 | 81 | 1013.2 |
| 20260905144325 | 78 | 74 | 0.0 | 0.0 | 0.00 | 0.00 | 0.00 | 81 | 1012.8 |
| 20260905144030 | 77 | 0 | 0.0 | 0.0 | 0.00 | 0.00 | 0.00 | 80 | 1013.2 |
| 20260905143840 | 78 | 74 | 0.0 | 0.0 | 0.00 | 0.00 | 0.00 | 82 | 1012.8 |
| 20260905143529 | 77 | 0 | 0.0 | 0.0 | 0.00 | 0.00 | 0.00 | 79 | 1013.1 |
| 20260905143336 | 77 | 74 | 0.0 | 0.0 | 0.00 | 0.00 | 0.00 | 81 | 1012.7 |
| 20260905143046 | 77 | 0 | 0.0 | 1.0 | 0.00 | 0.00 | 0.00 | 81 | 1013.1 |
| 20260905142829 | 77 | 74 | 0.0 | 1.0 | 0.00 | 0.00 | 0.00 | 83 | 1012.6 |
| 20260905142525 | 76 | 0 | 0.0 | 1.0 | 0.00 | 0.00 | 0.00 | 82 | 1013.1 |
| 20260905142323 | 77 | 74 | 0.0 | 1.0 | 0.00 | 0.00 | 0.00 | 81 | 1012.6 |
| 20260905142026 | 76 | 0 | 0.0 | 1.0 | 0.00 | 0.00 | 0.00 | 81 | 1013.0 |
| 20260905141815 | 77 | 77 | 0.0 | 0.0 | 0.00 | 0.00 | 0.00 | 82 | 1012.4 |
| 20260905141544 | 76 | 0 | 0.0 | 0.0 | 0.00 | 0.00 | 0.00 | 83 | 1012.8 |
| 20260905141351 | 76 | 77 | 0.0 | 0.0 | 0.00 | 0.00 | 0.00 | 83 | 1012.2 |
| 20260905141024 | 76 | 0 | 0.0 | 0.0 | 0.00 | 0.00 | 0.00 | 81 | 1012.7 |
| 20260905140823 | 76 | 77 | 0.0 | 0.0 | 0.00 | 0.00 | 0.00 | 82 | 1012.1 |
| 20260905140524 | 76 | 0 | 0.0 | 2.0 | 0.00 | 0.00 | 0.00 | 83 | 1012.5 |
| 20260905140316 | 76 | 74 | 0.0 | 2.0 | 0.00 | 0.00 | 0.00 | 84 | 1012.0 |
| 20260905140055 | 75 | 0 | 0.0 | 2.0 | 0.00 | 0.00 | 0.00 | 83 | 1012.6 |
| 20260905135829 | 76 | 75 | 0.0 | 2.0 | 0.00 | 0.00 | 0.00 | 83 | 1012.1 |
| 20260905135530 | 75 | 0 | 0.0 | 1.0 | 0.00 | 0.00 | 0.00 | 85 | 1012.6 |
| 20260905135323 | 75 | 48 | 0.0 | 1.0 | 0.00 | 0.00 | 0.00 | 84 | 1012.0 |
| 20260905135023 | 75 | 0 | 0.0 | 2.0 | 0.00 | 0.00 | 0.00 | 83 | 1012.6 |
| 20260905134817 | 75 | 73 | 0.0 | 2.0 | 0.00 | 0.00 | 0.00 | 84 | 1012.0 |
| 20260905134554 | 74 | 0 | 0.0 | 2.0 | 0.00 | 0.00 | 0.00 | 85 | 1012.6 |
| 20260905134331 | 75 | 73 | 0.0 | 2.0 | 0.00 | 0.00 | 0.00 | 86 | 1012.1 |
| 20260905134024 | 74 | 0 | 0.0 | 0.0 | 0.00 | 0.00 | 0.00 | 86 | 1012.7 |
| 20260905133847 | 74 | 77 | 0.0 | 0.0 | 0.00 | 0.00 | 0.00 | 86 | 1012.1 |
| 20260905133524 | 74 | 0 | 0.0 | 0.0 | 0.00 | 0.00 | 0.00 | 88 | 1012.7 |
| 20260905133320 | 74 | 75 | 0.0 | 0.0 | 0.00 | 0.00 | 0.00 | 89 | 1012.1 |
| 20260905133045 | 74 | 0 | 0.0 | 0.0 | 0.00 | 0.00 | 0.00 | 89 | 1012.6 |
| 20260905132833 | 74 | 75 | 0.0 | 0.0 | 0.00 | 0.00 | 0.00 | 91 | 1012.1 |
| 20260905132524 | 73 | 0 | 0.0 | 0.0 | 0.00 | 0.00 | 0.00 | 90 | 1012.7 |
| 20260905132327 | 74 | 63 | 0.0 | 0.0 | 0.00 | 0.00 | 0.00 | 90 | 1012.2 |
| 20260905132025 | 73 | 0 | 0.0 | 0.0 | 0.00 | 0.00 | 0.00 | 90 | 1012.8 |
| 20260905131822 | 73 | 63 | 0.0 | 0.0 | 0.00 | 0.00 | 0.00 | 91 | 1012.3 |
| 20260905131547 | 73 | 0 | 0.0 | 0.0 | 0.00 | 0.00 | 0.00 | 91 | 1012.8 |
| 20260905131318 | 73 | 28 | 0.0 | 0.0 | 0.00 | 0.00 | 0.00 | 92 | 1012.3 |
| 20260905131025 | 72 | 0 | 0.0 | 0.0 | 0.00 | 0.00 | 0.00 | 93 | 1012.8 |
| 20260905130852 | 73 | 28 | 0.0 | 0.0 | 0.00 | 0.00 | 0.00 | 94 | 1012.2 |
| 20260905130527 | 72 | 0 | 0.0 | 0.0 | 0.00 | 0.00 | 0.00 | 93 | 1012.7 |
| 20260905130326 | 73 | 28 | 0.0 | 0.0 | 0.00 | 0.00 | 0.00 | 94 | 1012.1 |
| 20260905130044 | 72 | 0 | 0.0 | 0.0 | 0.00 | 0.00 | 0.00 | 92 | 1012.8 |
| 20260905125819 | 72 | 28 | 0.0 | 0.0 | 0.00 | 0.00 | 0.00 | 93 | 1012.3 |
| 20260905125525 | 72 | 0 | 0.0 | 1.0 | 0.00 | 0.00 | 0.00 | 93 | 1012.8 |
| 20260905125319 | 72 | 28 | 0.0 | 1.0 | 0.00 | 0.00 | 0.00 | 93 | 1012.3 |
| 20260905125025 | 72 | 0 | 0.0 | 1.0 | 0.00 | 0.00 | 0.00 | 93 | 1012.7 |
| 20260905124831 | 72 | 28 | 0.0 | 1.0 | 0.00 | 0.00 | 0.00 | 94 | 1012.1 |
| 20260905124600 | 71 | 0 | 0.0 | 0.0 | 0.00 | 0.00 | 0.00 | 94 | 1012.5 |
| 20260905124325 | 72 | 28 | 0.0 | 0.0 | 0.00 | 0.00 | 0.00 | 94 | 1012.0 |
| 20260905124026 | 71 | 0 | 0.0 | 0.0 | 0.00 | 0.00 | 0.00 | 95 | 1012.6 |
| 20260905123837 | 72 | 27 | 0.0 | 0.0 | 0.00 | 0.00 | 0.00 | 96 | 1012.0 |
| 20260905123524 | 71 | 0 | 0.0 | 0.0 | 0.00 | 0.00 | 0.00 | 96 | 1012.4 |
| 20260905123329 | 72 | 27 | 0.0 | 0.0 | 0.00 | 0.00 | 0.00 | 97 | 1011.8 |
| 20260905123049 | 71 | 0 | 0.0 | 0.0 | 0.00 | 0.00 | 0.00 | 97 | 1012.4 |
| 20260905122823 | 71 | 27 | 0.0 | 0.0 | 0.00 | 0.00 | 0.00 | 97 | 1011.8 |
| 20260905122530 | 71 | 0 | 0.0 | 0.0 | 0.00 | 0.00 | 0.00 | 97 | 1012.4 |
| 20260905122318 | 71 | 27 | 0.0 | 0.0 | 0.00 | 0.00 | 0.00 | 97 | 1011.9 |
| 20260905122027 | 70 | 0 | 0.0 | 0.0 | 0.00 | 0.00 | 0.00 | 97 | 1012.4 |
| 20260905121832 | 71 | 0.0 | 0.0 | 0.00 | 0.00 | 0.00 | 97 | 1011.9 | |
| 20260905121544 | 70 | 0 | 0.0 | 0.0 | 0.00 | 0.00 | 0.00 | 97 | 1012.4 |
| 20260905121329 | 71 | 0.0 | 0.0 | 0.00 | 0.00 | 0.00 | 97 | 1011.9 | |
| 20260905121025 | 70 | 0 | 0.0 | 0.0 | 0.00 | 0.00 | 0.00 | 97 | 1012.5 |
| 20260905120846 | 70 | 0.0 | 0.0 | 0.00 | 0.00 | 0.00 | 97 | 1012.0 | |
| 20260905120525 | 70 | 0 | 0.0 | 0.0 | 0.00 | 0.00 | 0.00 | 97 | 1012.5 |
| 20260905120322 | 70 | 0.0 | 0.0 | 0.00 | 0.00 | 0.00 | 97 | 1011.9 | |
| 20260905120045 | 69 | 0 | 0.0 | 0.0 | 0.00 | 0.00 | 0.00 | 97 | 1012.4 |
| 20260905115818 | 70 | 0.0 | 0.0 | 0.00 | 0.00 | 0.00 | 97 | 1011.9 | |
| 20260905115528 | 69 | 0 | 0.0 | 0.0 | 0.00 | 0.00 | 0.00 | 97 | 1012.4 |
| 20260905115312 | 69 | 0.0 | 0.0 | 0.00 | 0.00 | 0.00 | 97 | 1011.7 | |
| 20260905115028 | 69 | 0 | 0.0 | 0.0 | 0.00 | 0.00 | 0.00 | 96 | 1012.3 |
| 20260905114847 | 69 | 0.0 | 0.0 | 0.00 | 0.00 | 0.00 | 97 | 1011.7 | |
| 20260905114543 | 68 | 0 | 0.0 | 0.0 | 0.00 | 0.00 | 0.00 | 97 | 1012.2 |
| 20260905114340 | 69 | 0.0 | 0.0 | 0.00 | 0.00 | 0.00 | 97 | 1011.7 | |
| 20260905114024 | 68 | 0 | 0.0 | 0.0 | 0.00 | 0.00 | 0.00 | 96 | 1012.3 |
| 20260905113822 | 69 | 0.0 | 0.0 | 0.00 | 0.00 | 0.00 | 97 | 1011.6 | |
| 20260905113525 | 68 | 0 | 0.0 | 0.0 | 0.00 | 0.00 | 0.00 | 96 | 1012.2 |
| 20260905113316 | 68 | 0.0 | 0.0 | 0.00 | 0.00 | 0.00 | 96 | 1011.6 | |
| 20260905113048 | 68 | 0 | 0.0 | 0.0 | 0.00 | 0.00 | 0.00 | 96 | 1012.1 |
| 20260905112830 | 68 | 0.0 | 0.0 | 0.00 | 0.00 | 0.00 | 96 | 1011.4 | |
| 20260905112525 | 68 | 0.0 | 0.0 | 0.00 | 0.00 | 0.00 | 96 | 1012.1 | |
| 20260905112328 | 68 | 0.0 | 0.0 | 0.00 | 0.00 | 0.00 | 96 | 1011.5 | |
| 20260905112030 | 68 | 0.0 | 0.0 | 0.00 | 0.00 | 0.00 | 96 | 1012.1 | |
| 20260905111821 | 68 | 0.0 | 0.0 | 0.00 | 0.00 | 0.00 | 96 | 1011.6 | |
| 20260905111601 | 68 | 0.0 | 0.0 | 0.00 | 0.00 | 0.00 | 96 | 1012.1 | |
| 20260905111314 | 68 | 0.0 | 0.0 | 0.00 | 0.00 | 0.00 | 96 | 1011.4 | |
| 20260905111025 | 68 | 0.0 | 0.0 | 0.00 | 0.00 | 0.00 | 96 | 1012.0 | |
| 20260905110829 | 68 | 0.0 | 0.0 | 0.00 | 0.00 | 0.00 | 96 | 1011.3 | |
| 20260905110525 | 68 | 0.0 | 0.0 | 0.00 | 0.00 | 0.00 | 96 | 1011.9 | |
| 20260905110322 | 68 | 0.0 | 0.0 | 0.00 | 0.00 | 0.00 | 96 | 1011.3 | |
| 20260905110043 | 68 | 0.0 | 0.0 | 0.00 | 0.00 | 0.00 | 96 | 1011.8 | |
| 20260905105819 | 68 | 0.0 | 0.0 | 0.00 | 0.00 | 0.00 | 96 | 1011.1 | |
| 20260905105528 | 68 | 0.0 | 0.0 | 0.00 | 0.00 | 0.00 | 96 | 1011.7 | |
| 20260905105315 | 68 | 0.0 | 0.0 | 0.00 | 0.00 | 0.00 | 96 | 1011.0 | |
| 20260905105026 | 68 | 0.0 | 0.0 | 0.00 | 0.00 | 0.00 | 96 | 1011.7 | |
| 20260905104817 | 68 | 0.0 | 0.0 | 0.00 | 0.00 | 0.00 | 96 | 1011.1 | |
| 20260905104555 | 68 | 0.0 | 0.0 | 0.00 | 0.00 | 0.00 | 96 | 1011.8 | |
| 20260905104313 | 68 | 0.0 | 0.0 | 0.00 | 0.00 | 0.00 | 96 | 1011.1 | |
| 20260905104024 | 68 | 0.0 | 0.0 | 0.00 | 0.00 | 0.00 | 96 | 1011.7 | |
| 20260905103827 | 68 | 0.0 | 0.0 | 0.00 | 0.00 | 0.00 | 96 | 1011.0 | |
| 20260905103525 | 68 | 0.0 | 0.0 | 0.00 | 0.00 | 0.00 | 96 | 1011.6 | |
| 20260905103323 | 68 | 0.0 | 0.0 | 0.00 | 0.00 | 0.00 | 96 | 1010.9 | |
| 20260905103044 | 68 | 0.0 | 0.0 | 0.00 | 0.00 | 0.00 | 96 | 1011.3 | |
| 20260905102838 | 68 | 0.0 | 0.0 | 0.00 | 0.00 | 0.00 | 96 | 1010.6 | |
| 20260905102525 | 68 | 0.0 | 0.0 | 0.00 | 0.00 | 0.00 | 96 | 1011.2 | |
| 20260905102322 | 68 | 0.0 | 0.0 | 0.00 | 0.00 | 0.00 | 96 | 1010.7 | |
| 20260905102025 | 68 | 0.0 | 0.0 | 0.00 | 0.00 | 0.00 | 96 | 1011.4 | |
| 20260905101854 | 68 | 0.0 | 0.0 | 0.00 | 0.00 | 0.00 | 96 | 1010.8 | |
| 20260905101552 | 68 | 0.0 | 0.0 | 0.00 | 0.00 | 0.00 | 95 | 1011.3 | |
| 20260905101345 | 68 | 0.0 | 0.0 | 0.00 | 0.00 | 0.00 | 96 | 1010.8 | |
| 20260905101026 | 68 | 0.0 | 0.0 | 0.00 | 0.00 | 0.00 | 95 | 1011.5 | |
| 20260905100832 | 68 | 0.0 | 0.0 | 0.00 | 0.00 | 0.00 | 96 | 1010.8 | |
| 20260905100529 | 68 | 0.0 | 0.0 | 0.00 | 0.00 | 0.00 | 95 | 1011.4 | |
| 20260905100325 | 68 | 0.0 | 0.0 | 0.00 | 0.00 | 0.00 | 96 | 1010.8 | |
| 20260905100046 | 68 | 0.0 | 0.0 | 0.00 | 0.00 | 0.00 | 95 | 1011.4 | |
| 20260905095829 | 68 | 0.0 | 0.0 | 0.00 | 0.00 | 0.00 | 96 | 1010.7 | |
| 20260905095524 | 68 | 0.0 | 0.0 | 0.00 | 0.00 | 0.00 | 95 | 1011.3 | |
| 20260905095324 | 68 | 0.0 | 0.0 | 0.00 | 0.00 | 0.00 | 96 | 1010.9 | |
| 20260905095028 | 68 | 0.0 | 0.0 | 0.00 | 0.00 | 0.00 | 95 | 1011.4 | |
| 20260905094817 | 68 | 0.0 | 0.0 | 0.00 | 0.00 | 0.00 | 96 | 1010.8 | |
| 20260905094544 | 68 | 0.0 | 0.0 | 0.00 | 0.00 | 0.00 | 95 | 1011.4 | |
| 20260905094328 | 68 | 0.0 | 0.0 | 0.00 | 0.00 | 0.00 | 96 | 1010.8 | |
| 20260905094025 | 68 | 0.0 | 0.0 | 0.00 | 0.00 | 0.00 | 95 | 1011.4 | |
| 20260905093822 | 68 | 0.0 | 0.0 | 0.00 | 0.00 | 0.00 | 96 | 1010.8 | |
| 20260905093530 | 68 | 0.0 | 0.0 | 0.00 | 0.00 | 0.00 | 95 | 1011.4 | |
| 20260905093320 | 68 | 0.0 | 0.0 | 0.00 | 0.00 | 0.00 | 96 | 1010.8 | |
| 20260905093043 | 68 | 0.0 | 0.0 | 0.00 | 0.00 | 0.00 | 95 | 1011.3 | |
| 20260905092817 | 68 | 0.0 | 0.0 | 0.00 | 0.00 | 0.00 | 96 | 1010.8 | |
| 20260905092525 | 68 | 0.0 | 0.0 | 0.00 | 0.00 | 0.00 | 95 | 1011.3 | |
| 20260905092332 | 68 | 0.0 | 0.0 | 0.00 | 0.00 | 0.00 | 96 | 1010.8 | |
| 20260905092025 | 68 | 0.0 | 0.0 | 0.00 | 0.00 | 0.00 | 95 | 1011.2 | |
| 20260905091826 | 68 | 0.0 | 0.0 | 0.00 | 0.00 | 0.00 | 96 | 1010.8 | |
| 20260905091607 | 68 | 0.0 | 0.0 | 0.00 | 0.00 | 0.00 | 95 | 1011.3 | |
| 20260905091341 | 68 | 0.0 | 0.0 | 0.00 | 0.00 | 0.00 | 96 | 1010.9 | |
| 20260905091025 | 68 | 0.0 | 0.0 | 0.00 | 0.00 | 0.00 | 95 | 1011.3 | |
| 20260905090817 | 68 | 0.0 | 0.0 | 0.00 | 0.00 | 0.00 | 95 | 1010.9 | |
| 20260905090523 | 68 | 0.0 | 0.0 | 0.00 | 0.00 | 0.00 | 95 | 1011.3 | |
| 20260905090315 | 68 | 0.0 | 0.0 | 0.00 | 0.00 | 0.00 | 95 | 1010.9 | |
| 20260905090044 | 68 | 0.0 | 0.0 | 0.00 | 0.00 | 0.00 | 95 | 1011.3 | |
| 20260905085812 | 69 | 0.0 | 0.0 | 0.00 | 0.00 | 0.00 | 95 | 1010.8 | |
| 20260905085526 | 68 | 0.0 | 0.0 | 0.00 | 0.00 | 0.00 | 95 | 1011.2 | |
| 20260905085328 | 69 | 0.0 | 0.0 | 0.00 | 0.00 | 0.00 | 95 | 1010.8 | |
| 20260905085024 | 68 | 0.0 | 0.0 | 0.00 | 0.00 | 0.00 | 95 | 1011.3 | |
| 20260905084821 | 69 | 0.0 | 0.0 | 0.00 | 0.00 | 0.00 | 96 | 1010.8 | |
| 20260905084606 | 68 | 0.0 | 0.0 | 0.00 | 0.00 | 0.00 | 95 | 1011.2 | |
| 20260905084334 | 69 | 0.0 | 0.0 | 0.00 | 0.00 | 0.00 | 96 | 1010.8 | |
| 20260905084028 | 68 | 0.0 | 0.0 | 0.00 | 0.00 | 0.00 | 95 | 1011.2 | |
| 20260905083849 | 69 | 0.0 | 0.0 | 0.00 | 0.00 | 0.00 | 96 | 1010.8 | |
| 20260905083526 | 68 | 0.0 | 0.0 | 0.00 | 0.00 | 0.00 | 95 | 1011.1 | |
| 20260905083324 | 69 | 0.0 | 0.0 | 0.00 | 0.00 | 0.00 | 96 | 1010.7 | |
| 20260905083045 | 68 | 0.0 | 0.0 | 0.00 | 0.00 | 0.00 | 95 | 1011.1 | |
| 20260905082827 | 69 | 0.0 | 0.0 | 0.00 | 0.00 | 0.00 | 96 | 1010.7 | |
| 20260905082524 | 68 | 0.0 | 0.0 | 0.00 | 0.00 | 0.00 | 95 | 1011.1 | |
| 20260905082325 | 69 | 0.0 | 0.0 | 0.00 | 0.00 | 0.00 | 95 | 1010.7 | |
| 20260905082024 | 68 | 0.0 | 0.0 | 0.00 | 0.00 | 0.00 | 95 | 1011.2 | |
| 20260905081820 | 69 | 0.0 | 0.0 | 0.00 | 0.00 | 0.00 | 95 | 1010.8 | |
| 20260905081552 | 68 | 0.0 | 0.0 | 0.00 | 0.00 | 0.00 | 95 | 1011.2 | |
| 20260905081314 | 69 | 0.0 | 0.0 | 0.00 | 0.00 | 0.00 | 95 | 1010.8 | |
| 20260905081023 | 68 | 0.0 | 0.0 | 0.00 | 0.00 | 0.00 | 95 | 1011.4 | |
| 20260905080830 | 69 | 0.0 | 0.0 | 0.00 | 0.00 | 0.00 | 95 | 1011.0 | |
| 20260905080524 | 68 | 0.0 | 0.0 | 0.00 | 0.00 | 0.00 | 95 | 1011.3 | |
| 20260905080326 | 69 | 0.0 | 0.0 | 0.00 | 0.00 | 0.00 | 95 | 1010.9 | |
| 20260905080047 | 68 | 0.0 | 0.0 | 0.00 | 0.00 | 0.00 | 95 | 1011.4 | |
| 20260905075821 | 69 | 0.0 | 0.0 | 0.00 | 0.00 | 0.00 | 95 | 1011.0 | |
| 20260905075524 | 69 | 0.0 | 0.0 | 0.00 | 0.00 | 0.00 | 95 | 1011.5 | |
| 20260905075318 | 69 | 0.0 | 0.0 | 0.00 | 0.00 | 0.00 | 95 | 1011.0 | |
| 20260905075024 | 69 | 0.0 | 0.0 | 0.00 | 0.00 | 0.00 | 95 | 1011.4 | |
| 20260905074833 | 69 | 0.0 | 0.0 | 0.00 | 0.00 | 0.00 | 95 | 1011.0 | |
| 20260905074550 | 69 | 0.0 | 0.0 | 0.00 | 0.00 | 0.00 | 95 | 1011.4 | |
| 20260905074348 | 69 | 0.0 | 0.0 | 0.00 | 0.00 | 0.00 | 95 | 1010.9 | |
| 20260905074025 | 69 | 0.0 | 0.0 | 0.00 | 0.00 | 0.00 | 95 | 1011.4 | |
| 20260905073824 | 69 | 0.0 | 0.0 | 0.00 | 0.00 | 0.00 | 95 | 1011.0 | |
| 20260905073525 | 69 | 0.0 | 0.0 | 0.00 | 0.00 | 0.00 | 95 | 1011.5 | |
| 20260905073338 | 69 | 0.0 | 0.0 | 0.00 | 0.00 | 0.00 | 95 | 1011.0 | |
| 20260905073045 | 69 | 0.0 | 0.0 | 0.00 | 0.00 | 0.00 | 95 | 1011.5 | |
| 20260905072829 | 69 | 0.0 | 0.0 | 0.00 | 0.00 | 0.00 | 95 | 1011.0 | |
| 20260905072524 | 69 | 0.0 | 0.0 | 0.00 | 0.00 | 0.00 | 95 | 1011.5 | |
| 20260905072325 | 69 | 0.0 | 0.0 | 0.00 | 0.00 | 0.00 | 95 | 1011.0 | |
| 20260905072025 | 69 | 0.0 | 0.0 | 0.00 | 0.00 | 0.00 | 95 | 1011.5 | |
| 20260905071821 | 70 | 0.0 | 0.0 | 0.00 | 0.00 | 0.00 | 95 | 1011.1 | |
| 20260905071546 | 69 | 0.0 | 0.0 | 0.00 | 0.00 | 0.00 | 95 | 1011.6 | |
| 20260905071317 | 70 | 0.0 | 0.0 | 0.00 | 0.00 | 0.00 | 95 | 1011.1 | |
| 20260905071028 | 69 | 0.0 | 0.0 | 0.00 | 0.00 | 0.00 | 95 | 1011.6 | |
| 20260905070813 | 70 | 0.0 | 0.0 | 0.00 | 0.00 | 0.00 | 95 | 1011.1 | |
| 20260905070527 | 69 | 0.0 | 0.0 | 0.00 | 0.00 | 0.00 | 95 | 1011.7 | |
| 20260905070330 | 70 | 0.0 | 0.0 | 0.00 | 0.00 | 0.00 | 95 | 1011.3 | |
| 20260905070106 | 69 | 0.0 | 0.0 | 0.00 | 0.00 | 0.00 | 95 | 1011.8 | |
| 20260905065826 | 70 | 0.0 | 0.0 | 0.00 | 0.00 | 0.00 | 95 | 1011.3 | |
| 20260905065531 | 69 | 0.0 | 0.0 | 0.00 | 0.01 | 0.00 | 95 | 1011.8 | |
| 20260905065342 | 70 | 0.0 | 0.0 | 0.00 | 0.00 | 0.00 | 95 | 1011.4 | |
| 20260905065025 | 69 | 0.0 | 0.0 | 0.00 | 0.01 | 0.00 | 95 | 1011.9 | |
| 20260905064817 | 70 | 0.0 | 0.0 | 0.00 | 0.00 | 0.00 | 95 | 1011.4 | |
| 20260905064547 | 69 | 0.0 | 0.0 | 0.00 | 0.01 | 0.00 | 95 | 1012.0 | |
| 20260905064317 | 70 | 0.0 | 0.0 | 0.00 | 0.00 | 0.00 | 95 | 1011.5 | |
| 20260905064026 | 70 | 0.0 | 0.0 | 0.00 | 0.01 | 0.00 | 95 | 1012.0 | |
| 20260905063812 | 70 | 0.0 | 0.0 | 0.00 | 0.00 | 0.00 | 95 | 1011.6 | |
| 20260905063525 | 70 | 0.0 | 0.0 | 0.00 | 0.01 | 0.00 | 95 | 1012.1 | |
| 20260905063327 | 70 | 0.0 | 0.0 | 0.00 | 0.00 | 0.00 | 95 | 1011.6 | |
| 20260905063044 | 70 | 0.0 | 0.0 | 0.00 | 0.01 | 0.00 | 95 | 1012.1 | |
| 20260905062822 | 70 | 0.0 | 0.0 | 0.00 | 0.00 | 0.00 | 95 | 1011.7 | |
| 20260905062527 | 70 | 0.0 | 0.0 | 0.00 | 0.01 | 0.00 | 94 | 1012.2 | |
| 20260905062318 | 70 | 0.0 | 0.0 | 0.00 | 0.00 | 0.00 | 95 | 1011.8 | |
| 20260905062028 | 70 | 0.0 | 0.0 | 0.00 | 0.01 | 0.00 | 94 | 1012.3 | |
| 20260905061834 | 70 | 0.0 | 0.0 | 0.00 | 0.00 | 0.00 | 95 | 1011.9 | |
| 20260905061543 | 70 | 0.0 | 0.0 | 0.00 | 0.01 | 0.00 | 94 | 1012.4 | |
| 20260905061330 | 70 | 0.0 | 0.0 | 0.00 | 0.00 | 0.00 | 95 | 1012.0 | |
| 20260905061024 | 70 | 0.0 | 0.0 | 0.00 | 0.01 | 0.00 | 94 | 1012.4 | |
| 20260905060826 | 70 | 0.0 | 0.0 | 0.00 | 0.00 | 0.00 | 95 | 1011.9 | |
| 20260905060524 | 70 | 0.0 | 0.0 | 0.00 | 0.01 | 0.00 | 94 | 1012.5 | |
| 20260905060322 | 71 | 0.0 | 0.0 | 0.00 | 0.00 | 0.00 | 95 | 1012.0 | |
| 20260905060048 | 70 | 0.0 | 0.0 | 0.00 | 0.01 | 0.00 | 94 | 1012.5 | |
| 20260905060027 | 71 | 0.0 | 0.0 | 0.00 | 0.00 | 0.00 | 95 | 1012.1 | |
| 20260905055524 | 70 | 0.0 | 0.0 | 0.00 | 0.04 | 0.00 | 94 | 1012.5 | |
| 20260905055024 | 70 | 0.0 | 0.0 | 0.00 | 0.04 | 0.00 | 94 | 1012.6 | |
| 20260905054556 | 70 | 0.0 | 0.0 | 0.00 | 0.04 | 0.00 | 94 | 1012.6 | |
| 20260905054313 | 71 | 0.0 | 0.0 | 0.00 | 0.01 | 0.00 | 95 | 1012.1 | |
| 20260905054029 | 70 | 0.0 | 0.0 | 0.00 | 0.04 | 0.00 | 94 | 1012.7 | |
| 20260905053813 | 71 | 0.0 | 0.0 | 0.00 | 0.01 | 0.00 | 95 | 1012.2 | |
| 20260905053529 | 70 | 0.0 | 0.0 | 0.00 | 0.04 | 0.00 | 94 | 1012.9 | |
| 20260905053344 | 71 | 0.0 | 0.0 | 0.00 | 0.01 | 0.00 | 95 | 1012.3 | |
| 20260905053047 | 70 | 0.0 | 0.0 | 0.00 | 0.04 | 0.00 | 94 | 1012.8 | |
| 20260905052822 | 71 | 0.0 | 0.0 | 0.00 | 0.01 | 0.00 | 95 | 1012.3 | |
| 20260905052524 | 70 | 0.0 | 0.0 | 0.00 | 0.04 | 0.00 | 94 | 1012.8 | |
| 20260905052316 | 71 | 0.0 | 0.0 | 0.00 | 0.01 | 0.00 | 94 | 1012.3 | |
| 20260905052028 | 71 | 0.0 | 0.0 | 0.00 | 0.04 | 0.00 | 94 | 1012.8 | |
| 20260905051829 | 71 | 0.0 | 0.0 | 0.00 | 0.01 | 0.00 | 94 | 1012.3 | |
| 20260905051554 | 71 | 0.0 | 0.0 | 0.00 | 0.04 | 0.00 | 94 | 1012.9 | |
| 20260905051342 | 71 | 0.0 | 0.0 | 0.00 | 0.01 | 0.00 | 94 | 1012.4 | |
| 20260905051028 | 71 | 0.0 | 0.0 | 0.00 | 0.04 | 0.00 | 94 | 1013.0 | |
| 20260905050817 | 71 | 0.0 | 0.0 | 0.00 | 0.01 | 0.00 | 94 | 1012.5 | |
| 20260905050528 | 71 | 0.0 | 0.0 | 0.00 | 0.04 | 0.00 | 94 | 1013.1 | |
| 20260905050313 | 71 | 0.0 | 0.0 | 0.00 | 0.01 | 0.00 | 95 | 1012.6 | |
| 20260905050050 | 71 | 0.0 | 0.0 | 0.00 | 0.04 | 0.00 | 94 | 1013.1 | |
| 20260905045830 | 72 | 0.0 | 0.0 | 0.00 | 0.04 | 0.00 | 95 | 1012.5 | |
| 20260905045527 | 71 | 0.0 | 0.0 | 0.00 | 0.20 | 0.00 | 94 | 1013.1 | |
| 20260905045346 | 72 | 0.0 | 0.0 | 0.00 | 0.04 | 0.00 | 95 | 1012.6 | |
| 20260905045027 | 71 | 0.0 | 0.0 | 0.00 | 0.20 | 0.00 | 94 | 1013.1 | |
| 20260905044821 | 72 | 0.0 | 0.0 | 0.00 | 0.04 | 0.00 | 94 | 1012.5 | |
| 20260905044546 | 71 | 0.0 | 0.0 | 0.00 | 0.20 | 0.00 | 94 | 1013.0 | |
| 20260905044316 | 72 | 0.0 | 0.0 | 0.00 | 0.04 | 0.00 | 94 | 1012.6 | |
| 20260905044025 | 71 | 0.0 | 0.0 | 0.00 | 0.20 | 0.00 | 94 | 1013.1 | |
| 20260905043830 | 72 | 0.0 | 0.0 | 0.00 | 0.04 | 0.00 | 94 | 1012.6 | |
| 20260905043525 | 71 | 0.0 | 0.0 | 0.00 | 0.20 | 0.00 | 94 | 1013.1 | |
| 20260905043325 | 72 | 0.0 | 0.0 | 0.00 | 0.04 | 0.00 | 94 | 1012.5 | |
| 20260905043044 | 71 | 0.0 | 0.0 | 0.00 | 0.20 | 0.00 | 94 | 1013.1 | |
| 20260905042822 | 72 | 0.0 | 0.0 | 0.00 | 0.04 | 0.00 | 94 | 1012.6 | |
| 20260905042525 | 71 | 0.0 | 0.0 | 0.00 | 0.20 | 0.00 | 94 | 1013.2 | |
| 20260905042317 | 72 | 0.0 | 0.0 | 0.00 | 0.04 | 0.00 | 94 | 1012.6 | |
| 20260905042025 | 71 | 0.0 | 0.0 | 0.00 | 0.20 | 0.00 | 94 | 1013.2 | |
| 20260905041814 | 72 | 0.0 | 0.0 | 0.00 | 0.04 | 0.00 | 94 | 1012.6 | |
| 20260905041557 | 72 | 0.0 | 0.0 | 0.00 | 0.20 | 0.00 | 94 | 1013.2 | |
| 20260905041330 | 72 | 0.0 | 0.0 | 0.00 | 0.04 | 0.00 | 94 | 1012.6 | |
| 20260905041027 | 72 | 0.0 | 0.0 | 0.00 | 0.20 | 0.00 | 94 | 1013.2 | |
| 20260905040845 | 72 | 0.0 | 0.0 | 0.00 | 0.04 | 0.00 | 94 | 1012.6 | |
| 20260905040527 | 72 | 0.0 | 0.0 | 0.00 | 0.20 | 0.00 | 94 | 1013.2 | |
| 20260905040320 | 72 | 0.0 | 0.0 | 0.00 | 0.04 | 0.00 | 94 | 1012.5 | |
| 20260905040055 | 72 | 0.0 | 0.0 | 0.00 | 0.20 | 0.00 | 94 | 1013.2 | |
| 20260905035816 | 72 | 0.0 | 0.0 | 0.00 | 0.20 | 0.04 | 94 | 1012.6 | |
| 20260905035529 | 72 | 0.0 | 0.0 | 0.00 | 0.20 | 0.04 | 93 | 1013.2 | |
| 20260905035329 | 72 | 0.0 | 0.0 | 0.00 | 0.20 | 0.04 | 94 | 1012.6 | |
| 20260905035024 | 72 | 0.0 | 0.0 | 0.00 | 0.20 | 0.04 | 94 | 1013.2 | |
| 20260905034822 | 72 | 0.0 | 0.0 | 0.00 | 0.20 | 0.04 | 94 | 1012.6 | |
| 20260905034548 | 72 | 0.0 | 0.0 | 0.00 | 0.20 | 0.04 | 94 | 1013.3 | |
| 20260905034320 | 72 | 0.0 | 0.0 | 0.00 | 0.20 | 0.04 | 94 | 1012.7 | |
| 20260905034028 | 72 | 0.0 | 0.0 | 0.00 | 0.20 | 0.04 | 93 | 1013.4 | |
| 20260905033818 | 73 | 0.0 | 0.0 | 0.00 | 0.20 | 0.04 | 94 | 1012.8 | |
| 20260905033526 | 72 | 0.0 | 0.0 | 0.00 | 0.20 | 0.04 | 94 | 1013.4 | |
| 20260905033313 | 73 | 0.0 | 0.0 | 0.00 | 0.20 | 0.04 | 94 | 1012.8 | |
| 20260905033051 | 72 | 0.0 | 0.0 | 0.00 | 0.20 | 0.04 | 94 | 1013.5 | |
| 20260905032830 | 73 | 0.0 | 0.0 | 0.00 | 0.20 | 0.04 | 94 | 1012.8 | |
| 20260905032525 | 72 | 0.0 | 0.0 | 0.00 | 0.20 | 0.04 | 94 | 1013.4 | |
| 20260905032325 | 73 | 0.0 | 0.0 | 0.00 | 0.20 | 0.04 | 94 | 1012.8 | |
| 20260905032028 | 72 | 0.0 | 0.0 | 0.00 | 0.20 | 0.04 | 94 | 1013.4 | |
| 20260905031820 | 73 | 0.0 | 0.0 | 0.00 | 0.20 | 0.04 | 94 | 1012.9 | |
| 20260905031553 | 72 | 0.0 | 0.0 | 0.00 | 0.20 | 0.04 | 94 | 1013.5 | |
| 20260905031316 | 73 | 0.0 | 0.0 | 0.00 | 0.20 | 0.04 | 94 | 1012.8 | |
| 20260905031027 | 72 | 0.0 | 0.0 | 0.00 | 0.20 | 0.04 | 94 | 1013.5 | |
| 20260905030813 | 73 | 0.0 | 0.0 | 0.00 | 0.20 | 0.04 | 94 | 1012.9 | |
| 20260905030527 | 72 | 0.0 | 0.0 | 0.00 | 0.20 | 0.04 | 94 | 1013.5 | |
| 20260905030327 | 73 | 0.0 | 0.0 | 0.00 | 0.20 | 0.04 | 94 | 1012.8 | |
| 20260905030048 | 72 | 0.0 | 0.0 | 0.00 | 0.20 | 0.04 | 94 | 1013.4 | |
| 20260905025824 | 73 | 0.0 | 0.0 | 0.00 | 0.20 | 0.04 | 94 | 1012.7 | |
| 20260905025528 | 72 | 0.0 | 0.0 | 0.00 | 0.20 | 0.04 | 93 | 1013.3 | |
| 20260905025340 | 73 | 0.0 | 0.0 | 0.00 | 0.20 | 0.04 | 94 | 1012.6 | |
| 20260905025025 | 72 | 0.0 | 0.0 | 0.00 | 0.20 | 0.04 | 93 | 1013.3 | |
| 20260905024911 | 73 | 0.0 | 0.0 | 0.00 | 0.20 | 0.04 | 94 | 1012.7 | |
| 20260905024559 | 72 | 0.0 | 0.0 | 0.00 | 0.20 | 0.04 | 93 | 1013.3 | |
| 20260905024325 | 73 | 0.0 | 0.0 | 0.00 | 0.20 | 0.04 | 94 | 1012.7 | |
| 20260905024027 | 73 | 0.0 | 0.0 | 0.00 | 0.20 | 0.04 | 93 | 1013.3 | |
| 20260905023818 | 73 | 0.0 | 0.0 | 0.00 | 0.20 | 0.04 | 94 | 1012.7 | |
| 20260905023525 | 73 | 0.0 | 0.0 | 0.00 | 0.20 | 0.04 | 93 | 1013.4 | |
| 20260905023314 | 73 | 0.0 | 0.0 | 0.00 | 0.20 | 0.04 | 94 | 1012.9 | |
| 20260905023043 | 73 | 0.0 | 0.0 | 0.00 | 0.20 | 0.04 | 93 | 1013.4 | |
| 20260905022829 | 73 | 0.0 | 0.0 | 0.00 | 0.20 | 0.04 | 94 | 1012.8 | |
| 20260905022528 | 73 | 0.0 | 0.0 | 0.00 | 0.20 | 0.04 | 93 | 1013.3 | |
| 20260905022326 | 73 | 0.0 | 0.0 | 0.00 | 0.20 | 0.04 | 93 | 1012.8 | |
| 20260905022024 | 73 | 0.0 | 0.0 | 0.00 | 0.20 | 0.04 | 93 | 1013.2 | |
| 20260905021822 | 73 | 0.0 | 0.0 | 0.00 | 0.20 | 0.04 | 93 | 1012.6 | |
| 20260905021545 | 73 | 0.0 | 0.0 | 0.00 | 0.20 | 0.04 | 93 | 1013.1 | |
| 20260905021318 | 73 | 0.0 | 0.0 | 0.00 | 0.20 | 0.04 | 93 | 1012.5 | |
| 20260905021027 | 73 | 0.0 | 0.0 | 0.00 | 0.20 | 0.04 | 93 | 1013.0 | |
| 20260905020815 | 73 | 0.0 | 0.0 | 0.00 | 0.20 | 0.04 | 93 | 1012.4 | |
| 20260905020525 | 73 | 0.0 | 0.0 | 0.00 | 0.20 | 0.04 | 93 | 1013.0 | |
| 20260905020330 | 73 | 0.0 | 0.0 | 0.00 | 0.20 | 0.04 | 93 | 1012.5 | |
| 20260905020059 | 73 | 0.0 | 0.0 | 0.00 | 0.20 | 0.04 | 92 | 1013.1 | |
| 20260905015822 | 74 | 0.0 | 0.0 | 0.00 | 0.20 | 0.04 | 93 | 1012.5 | |
| 20260905015524 | 73 | 0.0 | 0.0 | 0.00 | 0.20 | 0.04 | 92 | 1013.0 | |
| 20260905015320 | 74 | 0.0 | 0.0 | 0.00 | 0.20 | 0.04 | 93 | 1012.5 | |
| 20260905015028 | 73 | 0.0 | 0.0 | 0.00 | 0.20 | 0.04 | 92 | 1013.0 | |
| 20260905014816 | 74 | 0.0 | 0.0 | 0.00 | 0.20 | 0.04 | 93 | 1012.5 | |
| 20260905014546 | 73 | 0.0 | 0.0 | 0.00 | 0.20 | 0.04 | 92 | 1013.0 | |
| 20260905014327 | 74 | 0.0 | 0.0 | 0.00 | 0.20 | 0.04 | 93 | 1012.5 | |
| 20260905014024 | 74 | 0.0 | 0.0 | 0.00 | 0.20 | 0.04 | 92 | 1012.9 | |
| 20260905013820 | 74 | 0.0 | 0.0 | 0.00 | 0.20 | 0.04 | 93 | 1012.4 | |
| 20260905013527 | 74 | 0.0 | 0.0 | 0.00 | 0.20 | 0.04 | 92 | 1012.8 | |
| 20260905013313 | 74 | 0.0 | 0.0 | 0.00 | 0.20 | 0.04 | 92 | 1012.4 | |
| 20260905013043 | 74 | 0.0 | 0.0 | 0.00 | 0.20 | 0.04 | 92 | 1012.8 | |
| 20260905012829 | 74 | 0.0 | 0.0 | 0.00 | 0.20 | 0.04 | 92 | 1012.3 | |
| 20260905012525 | 74 | 0.0 | 0.0 | 0.00 | 0.20 | 0.04 | 92 | 1012.8 | |
| 20260905012325 | 75 | 0.0 | 0.0 | 0.00 | 0.20 | 0.04 | 92 | 1012.2 | |
| 20260905012025 | 74 | 0.0 | 0.0 | 0.00 | 0.20 | 0.04 | 92 | 1012.5 | |
| 20260905011819 | 75 | 0.0 | 0.0 | 0.00 | 0.20 | 0.04 | 92 | 1012.0 | |
| 20260905011546 | 74 | 0.0 | 0.0 | 0.00 | 0.20 | 0.04 | 92 | 1012.5 | |
| 20260905011316 | 75 | 0.0 | 0.0 | 0.00 | 0.20 | 0.04 | 92 | 1012.0 | |
| 20260905011025 | 74 | 0.0 | 0.0 | 0.00 | 0.20 | 0.04 | 92 | 1012.4 | |
| 20260905010831 | 75 | 0.0 | 0.0 | 0.00 | 0.20 | 0.04 | 92 | 1011.8 | |
| 20260905010525 | 75 | 0.0 | 0.0 | 0.00 | 0.20 | 0.04 | 91 | 1012.4 | |
| 20260905010347 | 75 | 0.0 | 0.0 | 0.00 | 0.20 | 0.04 | 92 | 1011.8 | |
| 20260905010049 | 75 | 0.0 | 0.0 | 0.00 | 0.20 | 0.04 | 91 | 1012.3 | |
| 20260905005821 | 75 | 0.0 | 0.0 | 0.00 | 0.20 | 0.04 | 92 | 1011.6 | |
| 20260905005524 | 75 | 0.0 | 0.0 | 0.00 | 0.20 | 0.04 | 91 | 1012.1 | |
| 20260905005318 | 75 | 0.0 | 0.0 | 0.00 | 0.20 | 0.04 | 92 | 1011.6 | |
| 20260905005025 | 75 | 0.0 | 0.0 | 0.00 | 0.20 | 0.04 | 91 | 1012.1 | |
| 20260905004833 | 76 | 0.0 | 0.0 | 0.00 | 0.20 | 0.04 | 92 | 1011.6 | |
| 20260905004547 | 75 | 0.0 | 0.0 | 0.00 | 0.20 | 0.04 | 91 | 1012.3 | |
| 20260905004328 | 76 | 0.0 | 0.0 | 0.00 | 0.20 | 0.04 | 92 | 1011.7 | |
| 20260905004030 | 75 | 0.0 | 0.0 | 0.00 | 0.20 | 0.04 | 91 | 1012.3 | |
| 20260905003824 | 76 | 0.0 | 0.0 | 0.00 | 0.20 | 0.04 | 91 | 1011.8 | |
| 20260905003530 | 75 | 0.0 | 0.0 | 0.00 | 0.20 | 0.04 | 91 | 1012.4 | |
| 20260905003320 | 76 | 0.0 | 0.0 | 0.00 | 0.20 | 0.04 | 91 | 1011.8 | |
| 20260905003046 | 75 | 0.0 | 0.0 | 0.00 | 0.20 | 0.04 | 91 | 1012.4 | |
| 20260905002837 | 76 | 0.0 | 0.0 | 0.00 | 0.20 | 0.04 | 91 | 1011.9 | |
| 20260905002525 | 76 | 0.0 | 0.0 | 0.00 | 0.20 | 0.04 | 90 | 1012.4 | |
| 20260905002332 | 76 | 0.0 | 0.0 | 0.00 | 0.20 | 0.04 | 91 | 1011.8 | |
| 20260905002027 | 76 | 0.0 | 0.0 | 0.00 | 0.20 | 0.04 | 90 | 1012.2 | |
| 20260905001826 | 76 | 0.0 | 0.0 | 0.00 | 0.20 | 0.04 | 91 | 1011.6 | |
| 20260905001554 | 76 | 0.0 | 0.0 | 0.00 | 0.20 | 0.04 | 90 | 1012.3 | |
| 20260905001319 | 76 | 0.0 | 0.0 | 0.00 | 0.20 | 0.04 | 91 | 1011.7 | |
| 20260905001025 | 76 | 0.0 | 0.0 | 0.00 | 0.20 | 0.04 | 90 | 1012.2 | |
| 20260905000815 | 77 | 0.0 | 0.0 | 0.00 | 0.20 | 0.04 | 91 | 1011.6 | |
| 20260905000525 | 76 | 0.0 | 0.0 | 0.00 | 0.20 | 0.04 | 90 | 1012.2 | |
| 20260905000314 | 77 | 0.0 | 0.0 | 0.00 | 0.20 | 0.04 | 91 | 1011.7 | |
| 20260905000051 | 76 | 0.0 | 0.0 | 0.00 | 0.20 | 0.04 | 90 | 1012.2 | |
| 20260904235847 | 77 | 0.0 | 0.0 | 0.00 | 0.20 | 0.04 | 90 | 1011.6 | |
| 20260904235528 | 77 | 0.0 | 0.0 | 0.00 | 0.20 | 0.04 | 89 | 1012.2 | |
| 20260904235326 | 77 | 0.0 | 0.0 | 0.00 | 0.20 | 0.04 | 90 | 1011.6 | |
| 20260904235027 | 77 | 0.0 | 0.0 | 0.00 | 0.20 | 0.04 | 90 | 1012.2 | |
| 20260904234841 | 77 | 0.0 | 0.0 | 0.00 | 0.20 | 0.04 | 90 | 1011.6 | |
| 20260904234551 | 77 | 0.0 | 0.0 | 0.00 | 0.20 | 0.04 | 89 | 1012.1 | |
| 20260904234349 | 77 | 0.0 | 0.0 | 0.00 | 0.20 | 0.04 | 90 | 1011.6 | |
| 20260904234024 | 77 | 0.0 | 0.0 | 0.00 | 0.20 | 0.04 | 89 | 1012.2 | |
| 20260904233841 | 78 | 0.0 | 0.0 | 0.00 | 0.20 | 0.04 | 90 | 1011.7 | |
| 20260904233525 | 77 | 0.0 | 0.0 | 0.00 | 0.20 | 0.04 | 90 | 1012.3 | |
| 20260904233317 | 78 | 0.0 | 0.0 | 0.00 | 0.20 | 0.04 | 90 | 1011.8 | |
| 20260904233055 | 77 | 0.0 | 0.0 | 0.00 | 0.20 | 0.04 | 90 | 1012.4 | |
| 20260904232830 | 78 | 0.0 | 0.0 | 0.00 | 0.20 | 0.04 | 91 | 1011.9 | |
| 20260904232525 | 78 | 0.0 | 0.0 | 0.00 | 0.20 | 0.04 | 90 | 1012.5 | |
| 20260904232322 | 78 | 0.0 | 0.0 | 0.00 | 0.20 | 0.04 | 91 | 1012.0 | |
| 20260904232026 | 78 | 0.0 | 0.0 | 0.00 | 0.20 | 0.04 | 90 | 1012.5 | |
| 20260904231815 | 78 | 0.0 | 0.0 | 0.00 | 0.20 | 0.04 | 91 | 1012.0 | |
| 20260904231545 | 78 | 0.0 | 0.0 | 0.00 | 0.20 | 0.04 | 90 | 1012.4 | |
| 20260904231330 | 78 | 0.0 | 0.0 | 0.00 | 0.20 | 0.04 | 91 | 1012.0 | |
| 20260904231052 | 78 | 0.0 | 0.0 | 0.00 | 0.20 | 0.04 | 90 | 1012.5 | |
| 20260904230847 | 78 | 0.0 | 0.0 | 0.00 | 0.20 | 0.04 | 90 | 1011.9 | |
| 20260904230525 | 78 | 0.0 | 0.0 | 0.00 | 0.20 | 0.04 | 90 | 1012.5 | |
| 20260904230322 | 78 | 0.0 | 0.0 | 0.00 | 0.20 | 0.04 | 90 | 1011.9 | |
| 20260904225839 | 78 | 0.0 | 0.0 | 0.00 | 0.20 | 0.04 | 90 | 1011.8 | |
| 20260904225529 | 78 | 0.0 | 0.0 | 0.00 | 0.20 | 0.04 | 90 | 1012.3 | |
| 20260904225314 | 79 | 0.0 | 0.0 | 0.00 | 0.20 | 0.04 | 90 | 1011.8 | |
| 20260904225029 | 78 | 0.0 | 0.0 | 0.00 | 0.20 | 0.04 | 90 | 1012.3 | |
| 20260904224830 | 79 | 0.0 | 0.0 | 0.00 | 0.20 | 0.04 | 90 | 1011.8 | |
| 20260904224603 | 78 | 0.0 | 0.0 | 0.00 | 0.20 | 0.04 | 91 | 1012.2 | |
| 20260904224346 | 79 | 0.0 | 0.0 | 0.00 | 0.20 | 0.04 | 91 | 1011.6 | |
| 20260904224026 | 78 | 0.0 | 0.0 | 0.00 | 0.20 | 0.04 | 91 | 1012.1 | |
| 20260904223849 | 79 | 0.0 | 0.0 | 0.00 | 0.20 | 0.04 | 91 | 1011.5 | |
| 20260904223527 | 78 | 0.0 | 0.0 | 0.00 | 0.20 | 0.04 | 91 | 1012.1 | |
| 20260904223333 | 79 | 0.0 | 0.0 | 0.00 | 0.20 | 0.04 | 91 | 1011.6 | |
| 20260904223045 | 78 | 0.0 | 0.0 | 0.00 | 0.20 | 0.04 | 90 | 1012.2 | |
| 20260904222828 | 79 | 0.0 | 0.0 | 0.00 | 0.20 | 0.04 | 91 | 1011.8 | |
| 20260904222525 | 78 | 0.0 | 0.0 | 0.00 | 0.20 | 0.04 | 91 | 1012.3 | |
| 20260904222325 | 79 | 0.0 | 0.0 | 0.00 | 0.20 | 0.04 | 91 | 1011.9 | |
| 20260904222025 | 78 | 0.0 | 0.0 | 0.00 | 0.20 | 0.04 | 90 | 1012.4 | |
| 20260904221822 | 79 | 0.0 | 0.0 | 0.00 | 0.20 | 0.04 | 91 | 1011.9 | |
| 20260904221546 | 78 | 0.0 | 0.0 | 0.00 | 0.20 | 0.04 | 91 | 1012.4 | |
| 20260904221321 | 78 | 0.0 | 0.0 | 0.00 | 0.20 | 0.04 | 91 | 1011.9 | |
| 20260904221025 | 78 | 0.0 | 0.0 | 0.00 | 0.20 | 0.04 | 91 | 1012.5 | |
| 20260904220818 | 78 | 0.0 | 0.0 | 0.00 | 0.20 | 0.04 | 91 | 1012.0 | |
| 20260904220525 | 78 | 0.0 | 0.0 | 0.00 | 0.20 | 0.04 | 91 | 1012.5 | |
| 20260904220333 | 78 | 0.0 | 0.0 | 0.00 | 0.20 | 0.04 | 92 | 1012.0 | |
| 20260904220045 | 78 | 0.0 | 0.0 | 0.00 | 0.20 | 0.04 | 91 | 1012.7 | |
| 20260904215828 | 78 | 0.0 | 0.0 | 0.00 | 0.20 | 0.04 | 92 | 1012.2 | |
| 20260904215525 | 78 | 0.0 | 0.0 | 0.00 | 0.20 | 0.04 | 91 | 1012.7 | |
| 20260904215322 | 78 | 0.0 | 0.0 | 0.00 | 0.20 | 0.04 | 92 | 1012.2 | |
| 20260904215024 | 78 | 0.0 | 0.0 | 0.00 | 0.20 | 0.04 | 92 | 1012.7 | |
| 20260904214819 | 78 | 0.0 | 0.0 | 0.00 | 0.20 | 0.04 | 92 | 1012.1 | |
| 20260904214553 | 78 | 0.0 | 0.0 | 0.00 | 0.20 | 0.04 | 91 | 1012.6 | |
| 20260904214316 | 78 | 0.0 | 0.0 | 0.00 | 0.20 | 0.04 | 91 | 1012.1 | |
| 20260904214035 | 78 | 0.0 | 0.0 | 0.00 | 0.20 | 0.04 | 91 | 1012.8 | |
| 20260904213825 | 78 | 0.0 | 0.0 | 0.00 | 0.20 | 0.04 | 90 | 1012.1 | |
| 20260904213530 | 78 | 0.0 | 0.0 | 0.00 | 0.20 | 0.04 | 90 | 1012.8 | |
| 20260904213323 | 79 | 0.0 | 0.0 | 0.00 | 0.20 | 0.04 | 91 | 1012.4 | |
| 20260904213047 | 78 | 0.0 | 0.0 | 0.00 | 0.20 | 0.04 | 90 | 1012.9 | |
| 20260904212850 | 79 | 0.0 | 0.0 | 0.00 | 0.20 | 0.04 | 90 | 1012.2 | |
| 20260904212530 | 79 | 0.0 | 0.0 | 0.00 | 0.20 | 0.04 | 89 | 1012.8 | |
| 20260904212322 | 79 | 0.0 | 0.0 | 0.00 | 0.20 | 0.04 | 89 | 1012.4 | |
| 20260904212030 | 79 | 0.0 | 0.0 | 0.00 | 0.20 | 0.04 | 88 | 1013.1 | |
| 20260904211812 | 80 | 0.0 | 0.0 | 0.00 | 0.20 | 0.04 | 88 | 1012.5 | |
| 20260904211558 | 79 | 0.0 | 0.0 | 0.00 | 0.20 | 0.04 | 87 | 1013.0 | |
| 20260904211326 | 80 | 0.0 | 0.0 | 0.00 | 0.20 | 0.04 | 87 | 1012.4 | |
| 20260904211030 | 80 | 0.0 | 0.0 | 0.00 | 0.20 | 0.04 | 86 | 1013.0 | |
| 20260904210820 | 80 | 0.0 | 0.0 | 0.00 | 0.20 | 0.04 | 87 | 1012.4 | |
| 20260904210525 | 80 | 0.0 | 0.0 | 0.00 | 0.20 | 0.04 | 86 | 1013.0 | |
| 20260904210312 | 81 | 0.0 | 0.0 | 0.00 | 0.20 | 0.04 | 85 | 1012.4 | |
| 20260904210047 | 81 | 0.0 | 0.0 | 0.00 | 0.20 | 0.04 | 84 | 1013.1 | |
| 20260904205826 | 81 | 0.0 | 0.0 | 0.00 | 0.20 | 0.04 | 85 | 1012.5 | |
| 20260904205525 | 81 | 0.0 | 0.0 | 0.00 | 0.20 | 0.04 | 83 | 1013.1 | |
| 20260904205321 | 82 | 0.0 | 0.0 | 0.00 | 0.20 | 0.04 | 83 | 1012.5 | |
| 20260904205025 | 82 | 0.0 | 0.0 | 0.00 | 0.20 | 0.04 | 82 | 1013.3 | |
| 20260904204815 | 83 | 0.0 | 0.0 | 0.00 | 0.20 | 0.04 | 82 | 1012.7 | |
| 20260904204553 | 82 | 0.0 | 0.0 | 0.00 | 0.20 | 0.04 | 81 | 1013.4 | |
| 20260904204327 | 83 | 0.0 | 0.0 | 0.00 | 0.20 | 0.04 | 80 | 1012.7 | |
| 20260904204026 | 83 | 0.0 | 0.0 | 0.00 | 0.20 | 0.04 | 80 | 1013.5 | |
| 20260904203824 | 83 | 0.0 | 0.0 | 0.00 | 0.20 | 0.04 | 79 | 1012.9 | |
| 20260904203524 | 83 | 0.0 | 0.0 | 0.00 | 0.20 | 0.04 | 77 | 1013.5 | |
| 20260904203317 | 84 | 0.0 | 0.0 | 0.00 | 0.20 | 0.04 | 78 | 1012.9 | |
| 20260904203047 | 84 | 0.0 | 0.0 | 0.00 | 0.20 | 0.04 | 76 | 1013.5 | |
| 20260904202833 | 84 | 28 | 0.0 | 0.0 | 0.00 | 0.20 | 0.04 | 77 | 1012.8 |
| 20260904202524 | 84 | 0.0 | 0.0 | 0.00 | 0.20 | 0.04 | 76 | 1013.5 | |
| 20260904202329 | 85 | 28 | 0.0 | 0.0 | 0.00 | 0.20 | 0.04 | 75 | 1012.6 |
| 20260904202025 | 84 | 0 | 0.0 | 0.0 | 0.00 | 0.20 | 0.04 | 75 | 1013.4 |
| 20260904201824 | 85 | 28 | 0.0 | 0.0 | 0.00 | 0.20 | 0.04 | 75 | 1012.7 |
| 20260904201547 | 85 | 0 | 0.0 | 0.0 | 0.00 | 0.20 | 0.04 | 73 | 1013.5 |
| 20260904201317 | 85 | 28 | 0.0 | 0.0 | 0.00 | 0.20 | 0.04 | 72 | 1012.8 |
| 20260904201025 | 85 | 0 | 0.0 | 0.0 | 0.00 | 0.20 | 0.04 | 71 | 1013.6 |
| 20260904200831 | 85 | 28 | 0.0 | 0.0 | 0.00 | 0.20 | 0.04 | 71 | 1012.9 |
| 20260904200525 | 85 | 0 | 0.0 | 0.0 | 0.00 | 0.20 | 0.04 | 71 | 1013.4 |
| 20260904200328 | 85 | 28 | 0.0 | 0.0 | 0.00 | 0.20 | 0.04 | 72 | 1012.7 |
| 20260904200046 | 85 | 0 | 0.0 | 0.0 | 0.00 | 0.20 | 0.04 | 72 | 1013.3 |
| 20260904195822 | 86 | 28 | 0.0 | 0.0 | 0.00 | 0.20 | 0.04 | 73 | 1012.5 |
| 20260904195525 | 85 | 0 | 0.0 | 4.0 | 0.00 | 0.20 | 0.04 | 72 | 1013.2 |
| 20260904195319 | 86 | 27 | 0.0 | 4.0 | 0.00 | 0.20 | 0.04 | 71 | 1012.6 |
| 20260904195025 | 85 | 0 | 0.0 | 4.0 | 0.00 | 0.20 | 0.04 | 69 | 1013.2 |
| 20260904194816 | 86 | 14 | 1.0 | 4.0 | 0.00 | 0.20 | 0.04 | 69 | 1012.6 |
| 20260904194544 | 85 | 0 | 0.0 | 2.0 | 0.00 | 0.20 | 0.04 | 71 | 1013.3 |
| 20260904194332 | 86 | 11 | 0.0 | 2.0 | 0.00 | 0.20 | 0.04 | 71 | 1012.5 |
| 20260904194024 | 86 | 0 | 0.0 | 3.0 | 0.00 | 0.20 | 0.04 | 70 | 1013.2 |
| 20260904193826 | 86 | 343 | 0.0 | 3.0 | 0.00 | 0.20 | 0.04 | 70 | 1012.6 |
| 20260904193530 | 86 | 0 | 0.0 | 4.0 | 0.00 | 0.20 | 0.04 | 69 | 1013.1 |
| 20260904193318 | 86 | 351 | 0.0 | 4.0 | 0.00 | 0.20 | 0.04 | 70 | 1012.5 |
| 20260904193052 | 86 | 0 | 0.0 | 4.0 | 0.00 | 0.20 | 0.04 | 68 | 1013.2 |
| 20260904192812 | 86 | 181 | 0.0 | 3.0 | 0.00 | 0.20 | 0.04 | 70 | 1012.6 |
| 20260904192527 | 85 | 0 | 0.0 | 6.0 | 0.00 | 0.20 | 0.04 | 70 | 1013.3 |
| 20260904192350 | 86 | 234 | 0.0 | 7.0 | 0.00 | 0.20 | 0.04 | 70 | 1012.6 |
| 20260904192025 | 85 | 0 | 0.0 | 6.0 | 0.00 | 0.20 | 0.04 | 70 | 1013.3 |
| 20260904191822 | 85 | 11 | 0.0 | 7.0 | 0.00 | 0.20 | 0.04 | 69 | 1012.7 |
| 20260904191542 | 85 | 23 | 0.0 | 2.0 | 0.00 | 0.20 | 0.04 | 69 | 1013.3 |
| 20260904191313 | 85 | 64 | 0.0 | 2.0 | 0.00 | 0.20 | 0.04 | 70 | 1012.6 |
| 20260904191025 | 85 | 0 | 0.0 | 6.0 | 0.00 | 0.20 | 0.04 | 69 | 1013.3 |
| 20260904190827 | 85 | 201 | 0.0 | 6.0 | 0.00 | 0.20 | 0.04 | 70 | 1012.6 |
| 20260904190525 | 85 | 0 | 0.0 | 7.0 | 0.00 | 0.20 | 0.04 | 70 | 1013.1 |
| 20260904190320 | 85 | 15 | 0.0 | 7.0 | 0.00 | 0.20 | 0.04 | 69 | 1012.6 |
| 20260904190044 | 85 | 0 | 1.0 | 7.0 | 0.00 | 0.20 | 0.04 | 70 | 1013.3 |
| 20260904185815 | 85 | 69 | 0.0 | 5.0 | 0.00 | 0.20 | 0.04 | 71 | 1012.8 |
| 20260904185527 | 85 | 0 | 0.0 | 4.0 | 0.00 | 0.21 | 0.04 | 69 | 1013.5 |
| 20260904185329 | 85 | 13 | 1.0 | 5.0 | 0.00 | 0.20 | 0.04 | 70 | 1012.9 |
| 20260904185027 | 85 | 0 | 0.0 | 4.0 | 0.00 | 0.21 | 0.04 | 68 | 1013.5 |
| 20260904184823 | 85 | 20 | 1.0 | 4.0 | 0.00 | 0.20 | 0.04 | 69 | 1013.0 |
| 20260904184544 | 85 | 0 | 0.0 | 6.0 | 0.00 | 0.21 | 0.04 | 68 | 1013.6 |
| 20260904184316 | 85 | 82 | 0.0 | 6.0 | 0.00 | 0.20 | 0.04 | 68 | 1013.2 |
| 20260904184025 | 85 | 0 | 1.0 | 7.0 | 0.00 | 0.21 | 0.04 | 68 | 1013.9 |
| 20260904183829 | 85 | 13 | 1.0 | 6.0 | 0.00 | 0.20 | 0.04 | 67 | 1013.3 |
| 20260904183524 | 85 | 0 | 1.0 | 8.0 | 0.00 | 0.21 | 0.04 | 68 | 1013.9 |
| 20260904183322 | 85 | 242 | 0.0 | 8.0 | 0.00 | 0.20 | 0.04 | 68 | 1013.5 |
| 20260904183046 | 85 | 78 | 0.0 | 8.0 | 0.00 | 0.21 | 0.04 | 68 | 1014.0 |
| 20260904182818 | 85 | 286 | 0.0 | 8.0 | 0.00 | 0.20 | 0.04 | 67 | 1013.5 |